Time,TemperatureF,DewpointF,PressureIn,WindDirection,WindDirectionDegrees,WindSpeedMPH,WindSpeedGustMPH,Humidity,HourlyPrecipIn,Conditions,Clouds,dailyrainin,SoftwareType,DateUTC
2013-08-05 00:05:00,64.0,57.3,29.92,WNW,292,1.0,5.0,79,-0.01,,,0.00,Weather View 32 v70,2013-08-05 04:05:00,
2013-08-05 00:10:00,64.0,57.3,29.92,NNE,22,0.0,3.0,79,-0.01,,,0.00,Weather View 32 v70,2013-08-05 04:10:00,
2013-08-05 00:15:00,64.0,57.3,29.92,NE,45,0.0,2.0,79,-0.01,,,0.00,Weather View 32 v70,2013-08-05 04:15:00,
2013-08-05 00:20:00,63.0,57.1,29.92,ESE,112,1.0,2.0,81,-0.01,,,0.00,Weather View 32 v70,2013-08-05 04:20:00,
2013-08-05 00:30:00,62.0,57.4,29.92,ESE,112,1.0,4.0,85,-0.01,,,0.00,Weather View 32 v70,2013-08-05 04:30:00,
2013-08-05 00:40:00,61.0,57.7,29.92,East,90,2.0,4.0,89,-0.01,,,0.00,Weather View 32 v70,2013-08-05 04:40:00,
2013-08-05 00:45:00,61.0,58.0,29.92,ENE,68,1.0,4.0,90,-0.01,,,0.00,Weather View 32 v70,2013-08-05 04:45:00,
2013-08-05 00:50:00,60.0,57.0,29.92,South,180,1.0,4.0,90,-0.01,,,0.00,Weather View 32 v70,2013-08-05 04:50:00,
2013-08-05 00:55:00,60.0,57.7,29.92,East,90,1.0,4.0,92,-0.01,,,0.00,Weather View 32 v70,2013-08-05 04:55:00,
2013-08-05 01:00:00,60.0,57.7,29.92,ENE,68,1.0,4.0,92,0.00,,,0.00,Weather View 32 v70,2013-08-05 05:00:00,
2013-08-05 01:10:00,60.0,58.0,29.92,East,90,1.0,4.0,93,0.00,,,0.00,Weather View 32 v70,2013-08-05 05:10:00,
2013-08-05 01:15:00,60.0,58.3,29.92,NE,45,2.0,4.0,94,0.00,,,0.00,Weather View 32 v70,2013-08-05 05:15:00,
2013-08-05 01:20:00,60.0,58.3,29.92,ESE,112,1.0,4.0,94,0.00,,,0.00,Weather View 32 v70,2013-08-05 05:20:00,
2013-08-05 01:25:00,60.0,58.3,29.93,SE,135,3.0,4.0,94,0.00,,,0.00,Weather View 32 v70,2013-08-05 05:25:00,
2013-08-05 01:30:00,61.0,59.0,29.93,SSE,158,3.0,4.0,93,0.00,,,0.00,Weather View 32 v70,2013-08-05 05:30:00,
2013-08-05 01:40:00,61.0,57.7,29.93,SSW,202,3.0,4.0,89,0.00,,,0.00,Weather View 32 v70,2013-08-05 05:40:00,
2013-08-05 01:45:00,62.0,58.1,29.93,SW,225,1.0,4.0,87,0.00,,,0.00,Weather View 32 v70,2013-08-05 05:45:00,
2013-08-05 01:50:00,62.0,57.4,29.92,SW,225,2.0,4.0,85,0.00,,,0.00,Weather View 32 v70,2013-08-05 05:50:00,
2013-08-05 01:55:00,62.0,56.8,29.93,SSW,202,1.0,4.0,83,0.00,,,0.00,Weather View 32 v70,2013-08-05 05:55:00,
2013-08-05 02:00:00,62.0,56.1,29.93,East,90,1.0,4.0,81,0.00,,,0.00,Weather View 32 v70,2013-08-05 06:00:00,
2013-08-05 02:05:00,62.0,56.1,29.93,ESE,112,1.0,4.0,81,0.00,,,0.00,Weather View 32 v70,2013-08-05 06:05:00,
2013-08-05 02:10:00,61.0,55.5,29.93,East,90,1.0,4.0,82,0.00,,,0.00,Weather View 32 v70,2013-08-05 06:10:00,
2013-08-05 02:15:00,61.0,55.5,29.92,East,90,1.0,4.0,82,0.00,,,0.00,Weather View 32 v70,2013-08-05 06:15:00,
2013-08-05 02:20:00,59.0,53.8,29.92,ESE,112,3.0,4.0,83,0.00,,,0.00,Weather View 32 v70,2013-08-05 06:20:00,
2013-08-05 02:25:00,59.0,54.8,29.92,NNE,22,1.0,4.0,86,0.00,,,0.00,Weather View 32 v70,2013-08-05 06:25:00,
2013-08-05 02:30:00,59.0,55.1,29.93,NE,45,2.0,4.0,87,0.00,,,0.00,Weather View 32 v70,2013-08-05 06:30:00,
2013-08-05 02:40:00,59.0,55.8,29.93,ENE,68,1.0,5.0,89,0.00,,,0.00,Weather View 32 v70,2013-08-05 06:40:00,
2013-08-05 02:45:00,59.0,56.1,29.94,NE,45,2.0,5.0,90,0.00,,,0.00,Weather View 32 v70,2013-08-05 06:45:00,
2013-08-05 02:50:00,59.0,55.8,29.94,West,270,3.0,5.0,89,0.00,,,0.00,Weather View 32 v70,2013-08-05 06:50:00,
2013-08-05 02:55:00,59.0,55.8,29.94,NE,45,1.0,5.0,89,0.00,,,0.00,Weather View 32 v70,2013-08-05 06:55:00,
2013-08-05 03:00:00,59.0,55.8,29.94,NNE,22,1.0,5.0,89,0.00,,,0.00,Weather View 32 v70,2013-08-05 07:00:00,
2013-08-05 03:10:00,60.0,56.4,29.94,SW,225,2.0,5.0,88,0.00,,,0.00,Weather View 32 v70,2013-08-05 07:10:00,
2013-08-05 03:15:00,60.0,56.1,29.94,SW,225,1.0,5.0,87,0.00,,,0.00,Weather View 32 v70,2013-08-05 07:15:00,
2013-08-05 03:20:00,60.0,55.8,29.94,NW,315,1.0,5.0,86,0.00,,,0.00,Weather View 32 v70,2013-08-05 07:20:00,
2013-08-05 03:25:00,60.0,55.8,29.94,NNW,338,1.0,5.0,86,0.00,,,0.00,Weather View 32 v70,2013-08-05 07:25:00,
2013-08-05 03:30:00,61.0,56.4,29.94,SSW,202,1.0,5.0,85,0.00,,,0.00,Weather View 32 v70,2013-08-05 07:30:00,
2013-08-05 03:35:00,60.0,55.1,29.94,NE,45,0.0,5.0,84,0.00,,,0.00,Weather View 32 v70,2013-08-05 07:35:00,
2013-08-05 03:40:00,60.0,55.1,29.94,NNW,338,1.0,5.0,84,0.00,,,0.00,Weather View 32 v70,2013-08-05 07:40:00,
2013-08-05 03:45:00,60.0,55.5,29.94,WSW,248,2.0,5.0,85,0.00,,,0.00,Weather View 32 v70,2013-08-05 07:45:00,
2013-08-05 03:50:00,59.0,54.5,29.94,SW,225,3.0,4.0,85,0.00,,,0.00,Weather View 32 v70,2013-08-05 07:50:00,
2013-08-05 03:55:00,59.0,54.8,29.94,NNE,22,0.0,4.0,86,0.00,,,0.00,Weather View 32 v70,2013-08-05 07:55:00,
2013-08-05 04:00:00,58.0,54.1,29.94,NE,45,1.0,4.0,87,0.00,,,0.00,Weather View 32 v70,2013-08-05 08:00:00,
2013-08-05 04:10:00,58.0,54.5,29.95,ENE,68,0.0,4.0,88,0.00,,,0.00,Weather View 32 v70,2013-08-05 08:10:00,
2013-08-05 04:15:00,58.0,54.8,29.94,ESE,112,1.0,4.0,89,0.00,,,0.00,Weather View 32 v70,2013-08-05 08:15:00,
2013-08-05 04:20:00,58.0,55.1,29.94,East,90,1.0,3.0,90,0.00,,,0.00,Weather View 32 v70,2013-08-05 08:20:00,
2013-08-05 04:30:00,57.0,54.4,29.94,NNE,22,0.0,3.0,91,0.00,,,0.00,Weather View 32 v70,2013-08-05 08:30:00,
2013-08-05 04:35:00,57.0,54.4,29.95,ENE,68,1.0,3.0,91,0.00,,,0.00,Weather View 32 v70,2013-08-05 08:35:00,
2013-08-05 04:40:00,57.0,54.7,29.95,NNE,22,2.0,3.0,92,0.00,,,0.00,Weather View 32 v70,2013-08-05 08:40:00,
2013-08-05 04:45:00,56.0,54.0,29.95,NE,45,2.0,3.0,93,0.00,,,0.00,Weather View 32 v70,2013-08-05 08:45:00,
2013-08-05 04:50:00,56.0,54.3,29.95,NNE,22,2.0,3.0,94,0.00,,,0.00,Weather View 32 v70,2013-08-05 08:50:00,
2013-08-05 04:55:00,56.0,54.6,29.95,NNE,22,2.0,3.0,95,0.00,,,0.00,Weather View 32 v70,2013-08-05 08:55:00,
2013-08-05 05:00:00,56.0,54.9,29.95,North,0,1.0,3.0,96,0.00,,,0.00,Weather View 32 v70,2013-08-05 09:00:00,
2013-08-05 05:05:00,56.0,54.9,29.95,WNW,292,1.0,3.0,96,0.00,,,0.00,Weather View 32 v70,2013-08-05 09:05:00,
2013-08-05 05:10:00,56.0,55.2,29.95,NW,315,2.0,3.0,97,0.00,,,0.00,Weather View 32 v70,2013-08-05 09:10:00,
2013-08-05 05:20:00,56.0,55.4,29.96,NNE,22,3.0,4.0,98,0.00,,,0.00,Weather View 32 v70,2013-08-05 09:20:00,
2013-08-05 05:25:00,56.0,55.4,29.96,NNE,22,1.0,4.0,98,0.00,,,0.00,Weather View 32 v70,2013-08-05 09:25:00,
2013-08-05 05:30:00,56.0,55.7,29.96,NE,45,1.0,4.0,99,0.00,,,0.00,Weather View 32 v70,2013-08-05 09:30:00,
2013-08-05 05:45:00,56.0,55.7,29.97,East,90,2.0,4.0,99,0.00,,,0.00,Weather View 32 v70,2013-08-05 09:45:00,
2013-08-05 05:50:00,55.0,54.7,29.97,NNE,22,1.0,4.0,99,0.00,,,0.00,Weather View 32 v70,2013-08-05 09:50:00,
2013-08-05 05:55:00,56.0,56.0,29.97,North,0,3.0,4.0,100,0.00,,,0.00,Weather View 32 v70,2013-08-05 09:55:00,
2013-08-05 06:00:00,55.0,55.0,29.97,NNE,22,3.0,4.0,100,0.00,,,0.00,Weather View 32 v70,2013-08-05 10:00:00,
2013-08-05 06:05:00,55.0,55.0,29.97,North,0,1.0,4.0,100,0.00,,,0.00,Weather View 32 v70,2013-08-05 10:05:00,
2013-08-05 06:10:00,55.0,55.0,29.97,NNE,22,1.0,4.0,100,0.00,,,0.00,Weather View 32 v70,2013-08-05 10:10:00,
2013-08-05 06:15:00,56.0,56.0,29.97,NNE,22,1.0,4.0,100,0.00,,,0.00,Weather View 32 v70,2013-08-05 10:15:00,
2013-08-05 06:30:00,56.0,56.0,29.98,North,0,0.0,3.0,100,0.00,,,0.00,Weather View 32 v70,2013-08-05 10:30:00,
2013-08-05 06:40:00,56.0,56.0,29.98,ENE,68,1.0,3.0,100,0.00,,,0.00,Weather View 32 v70,2013-08-05 10:40:00,
2013-08-05 06:45:00,57.0,57.0,29.98,NNE,22,1.0,3.0,100,0.00,,,0.00,Weather View 32 v70,2013-08-05 10:45:00,
2013-08-05 06:50:00,57.0,57.0,29.98,ENE,68,2.0,3.0,100,0.00,,,0.00,Weather View 32 v70,2013-08-05 10:50:00,
2013-08-05 06:55:00,57.0,57.0,29.98,North,0,0.0,3.0,100,0.00,,,0.00,Weather View 32 v70,2013-08-05 10:55:00,
2013-08-05 07:00:00,58.0,58.0,29.98,NE,45,2.0,3.0,100,0.00,,,0.00,Weather View 32 v70,2013-08-05 11:00:00,
2013-08-05 07:05:00,58.0,58.0,29.99,NNE,22,1.0,3.0,100,0.00,,,0.00,Weather View 32 v70,2013-08-05 11:05:00,
2013-08-05 07:10:00,59.0,59.0,29.99,NNE,22,1.0,3.0,100,0.00,,,0.00,Weather View 32 v70,2013-08-05 11:10:00,
2013-08-05 07:20:00,60.0,59.7,29.99,ESE,112,1.0,3.0,99,0.00,,,0.00,Weather View 32 v70,2013-08-05 11:20:00,
2013-08-05 07:25:00,60.0,59.1,29.99,ENE,68,1.0,3.0,97,0.00,,,0.00,Weather View 32 v70,2013-08-05 11:25:00,
2013-08-05 07:30:00,61.0,59.8,29.99,ESE,112,1.0,3.0,96,0.00,,,0.00,Weather View 32 v70,2013-08-05 11:30:00,
2013-08-05 07:35:00,61.0,59.8,29.99,NE,45,1.0,3.0,96,0.00,,,0.00,Weather View 32 v70,2013-08-05 11:35:00,
2013-08-05 07:45:00,64.0,62.2,29.99,NNE,22,0.0,3.0,94,0.00,,,0.00,Weather View 32 v70,2013-08-05 11:45:00,
2013-08-05 07:50:00,65.0,62.3,29.99,North,0,0.0,3.0,91,0.00,,,0.00,Weather View 32 v70,2013-08-05 11:50:00,
2013-08-05 08:00:00,65.0,60.4,29.99,NNW,338,1.0,3.0,85,0.00,,,0.00,Weather View 32 v70,2013-08-05 12:00:00,
2013-08-05 08:05:00,65.0,59.4,29.99,SW,225,3.0,5.0,82,0.00,,,0.00,Weather View 32 v70,2013-08-05 12:05:00,
2013-08-05 08:10:00,65.0,59.0,29.99,SW,225,3.0,5.0,81,0.00,,,0.00,Weather View 32 v70,2013-08-05 12:10:00,
2013-08-05 08:20:00,65.0,58.3,29.99,West,270,3.0,5.0,79,0.00,,,0.00,Weather View 32 v70,2013-08-05 12:20:00,
2013-08-05 08:25:00,65.0,58.3,29.99,NNE,22,1.0,7.0,79,0.00,,,0.00,Weather View 32 v70,2013-08-05 12:25:00,
2013-08-05 08:30:00,66.0,58.9,29.99,NW,315,2.0,7.0,78,0.00,,,0.00,Weather View 32 v70,2013-08-05 12:30:00,
2013-08-05 08:35:00,66.0,58.2,29.99,SSW,202,3.0,7.0,76,0.00,,,0.00,Weather View 32 v70,2013-08-05 12:35:00,
2013-08-05 08:55:00,66.0,56.7,30.00,SSW,202,8.0,11.0,72,0.00,,,0.00,Weather View 32 v70,2013-08-05 12:55:00,
2013-08-05 09:00:00,66.0,56.7,30.00,SW,225,5.0,11.0,72,0.00,,,0.00,Weather View 32 v70,2013-08-05 13:00:00,
2013-08-05 09:05:00,66.0,55.9,30.00,SSW,202,3.0,11.0,70,0.00,,,0.00,Weather View 32 v70,2013-08-05 13:05:00,
2013-08-05 09:10:00,66.0,55.5,30.00,West,270,5.0,11.0,69,0.00,,,0.00,Weather View 32 v70,2013-08-05 13:10:00,
2013-08-05 09:15:00,67.0,56.1,30.00,SW,225,5.0,11.0,68,0.00,,,0.00,Weather View 32 v70,2013-08-05 13:15:00,
2013-08-05 09:20:00,67.0,56.1,30.00,WSW,248,3.0,11.0,68,0.00,,,0.00,Weather View 32 v70,2013-08-05 13:20:00,
2013-08-05 09:25:00,67.0,55.2,30.00,West,270,4.0,11.0,66,0.00,,,0.00,Weather View 32 v70,2013-08-05 13:25:00,
2013-08-05 09:36:00,68.0,55.8,30.01,West,270,3.0,11.0,65,0.00,,,0.00,Weather View 32 v70,2013-08-05 13:36:00,
2013-08-05 09:45:00,68.0,55.3,30.01,WSW,248,5.0,12.0,64,0.00,,,0.00,Weather View 32 v70,2013-08-05 13:45:00,
2013-08-05 09:50:00,68.0,55.3,30.01,WSW,248,4.0,12.0,64,0.00,,,0.00,Weather View 32 v70,2013-08-05 13:50:00,
2013-08-05 09:55:00,68.0,54.9,30.00,SSW,202,7.0,12.0,63,0.00,,,0.00,Weather View 32 v70,2013-08-05 13:55:00,
2013-08-05 10:05:00,69.0,54.0,30.00,West,270,5.0,12.0,59,0.00,,,0.00,Weather View 32 v70,2013-08-05 14:05:00,
2013-08-05 10:10:00,69.0,54.0,30.00,SSW,202,4.0,12.0,59,0.00,,,0.00,Weather View 32 v70,2013-08-05 14:10:00,
2013-08-05 10:15:00,69.0,53.1,30.00,NW,315,4.0,13.0,57,0.00,,,0.00,Weather View 32 v70,2013-08-05 14:15:00,
2013-08-05 10:20:00,69.0,51.6,30.01,West,270,5.0,13.0,54,0.00,,,0.00,Weather View 32 v70,2013-08-05 14:20:00,
2013-08-05 10:25:00,69.0,51.1,30.01,West,270,11.0,13.0,53,0.00,,,0.00,Weather View 32 v70,2013-08-05 14:25:00,
2013-08-05 10:30:00,70.0,51.0,30.01,WSW,248,9.0,15.0,51,0.00,,,0.00,Weather View 32 v70,2013-08-05 14:30:00,
2013-08-05 10:35:00,69.0,50.1,30.01,SSW,202,7.0,15.0,51,0.00,,,0.00,Weather View 32 v70,2013-08-05 14:35:00,
2013-08-05 10:40:00,70.0,51.0,30.01,West,270,6.0,15.0,51,0.00,,,0.00,Weather View 32 v70,2013-08-05 14:40:00,
2013-08-05 10:45:00,70.0,49.9,30.01,SW,225,8.0,15.0,49,0.00,,,0.00,Weather View 32 v70,2013-08-05 14:45:00,
2013-08-05 10:50:00,70.0,50.5,30.01,WNW,292,5.0,15.0,50,0.00,,,0.00,Weather View 32 v70,2013-08-05 14:50:00,
2013-08-05 10:55:00,70.0,50.5,30.00,SSW,202,8.0,15.0,50,0.00,,,0.00,Weather View 32 v70,2013-08-05 14:55:00,
2013-08-05 11:00:00,70.0,52.0,30.00,SSW,202,9.0,15.0,53,0.00,,,0.00,Weather View 32 v70,2013-08-05 15:00:00,
2013-08-05 11:10:00,70.0,52.5,30.00,SW,225,8.0,15.0,54,0.00,,,0.00,Weather View 32 v70,2013-08-05 15:10:00,
2013-08-05 11:20:00,71.0,53.0,30.00,SSW,202,5.0,15.0,53,0.00,,,0.00,Weather View 32 v70,2013-08-05 15:20:00,
2013-08-05 11:25:00,71.0,52.4,30.00,South,180,5.0,15.0,52,0.00,,,0.00,Weather View 32 v70,2013-08-05 15:25:00,
2013-08-05 11:30:00,71.0,52.4,30.00,West,270,6.0,15.0,52,0.00,,,0.00,Weather View 32 v70,2013-08-05 15:30:00,
2013-08-05 11:35:00,72.0,53.4,30.00,SW,225,2.0,13.0,52,0.00,,,0.00,Weather View 32 v70,2013-08-05 15:35:00,
2013-08-05 11:40:00,72.0,52.8,30.00,West,270,6.0,13.0,51,0.00,,,0.00,Weather View 32 v70,2013-08-05 15:40:00,
2013-08-05 11:45:00,72.0,51.7,30.00,WSW,248,6.0,14.0,49,0.00,,,0.00,Weather View 32 v70,2013-08-05 15:45:00,
2013-08-05 11:55:00,72.0,52.8,30.00,South,180,4.0,14.0,51,0.00,,,0.00,Weather View 32 v70,2013-08-05 15:55:00,
2013-08-05 12:00:00,72.0,52.8,30.00,SSE,158,3.0,14.0,51,0.00,,,0.00,Weather View 32 v70,2013-08-05 16:00:00,
2013-08-05 12:10:00,72.0,51.7,30.00,SSW,202,3.0,14.0,49,0.00,,,0.00,Weather View 32 v70,2013-08-05 16:10:00,
2013-08-05 12:20:00,73.0,53.2,29.99,South,180,4.0,14.0,50,0.00,,,0.00,Weather View 32 v70,2013-08-05 16:20:00,
2013-08-05 12:25:00,73.0,52.1,30.00,SW,225,7.0,14.0,48,0.00,,,0.00,Weather View 32 v70,2013-08-05 16:25:00,
2013-08-05 12:30:00,73.0,51.5,30.00,South,180,8.0,14.0,47,0.00,,,0.00,Weather View 32 v70,2013-08-05 16:30:00,
2013-08-05 12:35:00,73.0,52.1,29.99,NE,45,1.0,14.0,48,0.00,,,0.00,Weather View 32 v70,2013-08-05 16:35:00,
2013-08-05 12:45:00,73.0,50.9,29.99,SW,225,11.0,14.0,46,0.00,,,0.00,Weather View 32 v70,2013-08-05 16:45:00,
2013-08-05 12:50:00,73.0,50.9,29.98,SE,135,4.0,13.0,46,0.00,,,0.00,Weather View 32 v70,2013-08-05 16:50:00,
2013-08-05 12:55:00,73.0,50.3,29.98,WNW,292,4.0,13.0,45,0.00,,,0.00,Weather View 32 v70,2013-08-05 16:55:00,
2013-08-05 13:00:00,73.0,50.3,29.98,SSW,202,6.0,14.0,45,0.00,,,0.00,Weather View 32 v70,2013-08-05 17:00:00,
2013-08-05 13:05:00,73.0,50.9,29.97,SW,225,11.0,14.0,46,0.00,,,0.00,Weather View 32 v70,2013-08-05 17:05:00,
2013-08-05 13:10:00,73.0,51.5,29.98,SW,225,5.0,14.0,47,0.00,,,0.00,Weather View 32 v70,2013-08-05 17:10:00,
2013-08-05 13:20:00,73.0,50.9,29.97,SW,225,6.0,14.0,46,0.00,,,0.00,Weather View 32 v70,2013-08-05 17:20:00,
2013-08-05 13:25:00,74.0,52.4,29.97,WSW,248,7.0,14.0,47,0.00,,,0.00,Weather View 32 v70,2013-08-05 17:25:00,
2013-08-05 13:30:00,74.0,51.8,29.97,West,270,6.0,14.0,46,0.00,,,0.00,Weather View 32 v70,2013-08-05 17:30:00,
2013-08-05 13:35:00,73.0,50.9,29.97,South,180,1.0,14.0,46,0.00,,,0.00,Weather View 32 v70,2013-08-05 17:35:00,
2013-08-05 13:45:00,74.0,51.2,29.97,SW,225,8.0,14.0,45,0.00,,,0.00,Weather View 32 v70,2013-08-05 17:45:00,
2013-08-05 13:50:00,74.0,51.8,29.96,South,180,3.0,14.0,46,0.00,,,0.00,Weather View 32 v70,2013-08-05 17:50:00,
2013-08-05 13:55:00,74.0,50.6,29.96,SW,225,3.0,14.0,44,0.00,,,0.00,Weather View 32 v70,2013-08-05 17:55:00,
2013-08-05 14:00:00,74.0,51.8,29.96,West,270,9.0,13.0,46,0.00,,,0.00,Weather View 32 v70,2013-08-05 18:00:00,
2013-08-05 14:10:00,76.0,53.7,29.96,West,270,8.0,13.0,46,0.00,,,0.00,Weather View 32 v70,2013-08-05 18:10:00,
2013-08-05 14:20:00,75.0,52.8,29.96,SSW,202,5.0,16.0,46,0.00,,,0.00,Weather View 32 v70,2013-08-05 18:20:00,
2013-08-05 14:30:00,75.0,52.2,29.95,SW,225,3.0,16.0,45,0.00,,,0.00,Weather View 32 v70,2013-08-05 18:30:00,
2013-08-05 14:35:00,75.0,51.5,29.95,South,180,6.0,16.0,44,0.00,,,0.00,Weather View 32 v70,2013-08-05 18:35:00,
2013-08-05 14:40:00,76.0,53.1,29.95,SSW,202,3.0,16.0,45,0.00,,,0.00,Weather View 32 v70,2013-08-05 18:40:00,
2013-08-05 14:45:00,76.0,53.1,29.95,South,180,5.0,16.0,45,0.00,,,0.00,Weather View 32 v70,2013-08-05 18:45:00,
2013-08-05 14:50:00,76.0,52.4,29.95,SW,225,6.0,16.0,44,0.00,,,0.00,Weather View 32 v70,2013-08-05 18:50:00,
2013-08-05 14:55:00,76.0,51.8,29.95,WNW,292,5.0,16.0,43,0.00,,,0.00,Weather View 32 v70,2013-08-05 18:55:00,
2013-08-05 15:00:00,76.0,52.4,29.95,WNW,292,5.0,16.0,44,0.00,,,0.00,Weather View 32 v70,2013-08-05 19:00:00,
2013-08-05 15:10:00,76.0,51.8,29.95,SSW,202,5.0,16.0,43,0.00,,,0.00,Weather View 32 v70,2013-08-05 19:10:00,
2013-08-05 15:20:00,76.0,51.8,29.95,SW,225,5.0,15.0,43,0.00,,,0.00,Weather View 32 v70,2013-08-05 19:20:00,
2013-08-05 15:25:00,76.0,52.4,29.95,NW,315,4.0,15.0,44,0.00,,,0.00,Weather View 32 v70,2013-08-05 19:25:00,
2013-08-05 15:30:00,76.0,51.8,29.95,SSW,202,8.0,15.0,43,0.00,,,0.00,Weather View 32 v70,2013-08-05 19:30:00,
2013-08-05 15:39:00,76.0,51.8,29.95,WSW,248,5.0,15.0,43,0.00,,,0.00,Weather View 32 v70,2013-08-05 19:39:00,
2013-08-05 15:45:00,77.0,52.7,29.94,SSW,202,8.0,15.0,43,0.00,,,0.00,Weather View 32 v70,2013-08-05 19:45:00,
2013-08-05 15:50:00,76.0,51.8,29.94,NW,315,4.0,15.0,43,0.00,,,0.00,Weather View 32 v70,2013-08-05 19:50:00,
2013-08-05 16:10:00,76.0,52.4,29.93,SSW,202,5.0,14.0,44,0.00,,,0.00,Weather View 32 v70,2013-08-05 20:10:00,
2013-08-05 16:20:00,78.0,53.6,29.94,South,180,3.0,14.0,43,0.00,,,0.00,Weather View 32 v70,2013-08-05 20:20:00,
2013-08-05 16:25:00,77.0,52.1,29.93,SW,225,6.0,14.0,42,0.00,,,0.00,Weather View 32 v70,2013-08-05 20:25:00,
2013-08-05 16:30:00,77.0,52.7,29.93,West,270,7.0,14.0,43,0.00,,,0.00,Weather View 32 v70,2013-08-05 20:30:00,
2013-08-05 16:35:00,77.0,52.7,29.93,NNW,338,2.0,13.0,43,0.00,,,0.00,Weather View 32 v70,2013-08-05 20:35:00,
2013-08-05 16:40:00,77.0,52.7,29.93,South,180,4.0,13.0,43,0.00,,,0.00,Weather View 32 v70,2013-08-05 20:40:00,
2013-08-05 16:50:00,77.0,53.3,29.93,SSW,202,5.0,13.0,44,0.00,,,0.00,Weather View 32 v70,2013-08-05 20:50:00,
2013-08-05 16:55:00,77.0,52.1,29.93,SSW,202,2.0,13.0,42,0.00,,,0.00,Weather View 32 v70,2013-08-05 20:55:00,
2013-08-05 17:00:00,77.0,52.1,29.93,SSW,202,3.0,12.0,42,0.00,,,0.00,Weather View 32 v70,2013-08-05 21:00:00,
2013-08-05 17:05:00,77.0,52.1,29.93,SSW,202,3.0,11.0,42,0.00,,,0.00,Weather View 32 v70,2013-08-05 21:05:00,
2013-08-05 17:15:00,78.0,52.3,29.93,SW,225,3.0,11.0,41,0.00,,,0.00,Weather View 32 v70,2013-08-05 21:15:00,
2013-08-05 17:20:00,77.0,51.4,29.93,SW,225,4.0,11.0,41,0.00,,,0.00,Weather View 32 v70,2013-08-05 21:20:00,
2013-08-05 17:25:00,77.0,52.7,29.93,WNW,292,4.0,11.0,43,0.00,,,0.00,Weather View 32 v70,2013-08-05 21:25:00,
2013-08-05 17:30:00,77.0,52.7,29.94,WSW,248,3.0,11.0,43,0.00,,,0.00,Weather View 32 v70,2013-08-05 21:30:00,
2013-08-05 17:45:00,77.0,53.3,29.93,SW,225,4.0,11.0,44,0.00,,,0.00,Weather View 32 v70,2013-08-05 21:45:00,
2013-08-05 17:50:00,77.0,52.7,29.93,SW,225,5.0,10.0,43,0.00,,,0.00,Weather View 32 v70,2013-08-05 21:50:00,
2013-08-05 17:55:00,77.0,52.7,29.94,SW,225,3.0,10.0,43,0.00,,,0.00,Weather View 32 v70,2013-08-05 21:55:00,
2013-08-05 18:00:00,77.0,52.1,29.94,SSW,202,3.0,10.0,42,0.00,,,0.00,Weather View 32 v70,2013-08-05 22:00:00,
2013-08-05 18:05:00,77.0,52.1,29.94,SSW,202,4.0,10.0,42,0.00,,,0.00,Weather View 32 v70,2013-08-05 22:05:00,
2013-08-05 18:15:00,77.0,52.1,29.94,SW,225,3.0,10.0,42,0.00,,,0.00,Weather View 32 v70,2013-08-05 22:15:00,
2013-08-05 18:25:00,77.0,52.7,29.94,SSE,158,2.0,8.0,43,0.00,,,0.00,Weather View 32 v70,2013-08-05 22:25:00,
2013-08-05 18:35:00,77.0,53.3,29.95,West,270,3.0,7.0,44,0.00,,,0.00,Weather View 32 v70,2013-08-05 22:35:00,
2013-08-05 18:45:00,76.0,54.2,29.95,ESE,112,1.0,7.0,47,0.00,,,0.00,Weather View 32 v70,2013-08-05 22:45:00,
2013-08-05 18:50:00,76.0,55.4,29.95,ESE,112,3.0,7.0,49,0.00,,,0.00,Weather View 32 v70,2013-08-05 22:50:00,
2013-08-05 18:55:00,76.0,55.4,29.95,SE,135,2.0,7.0,49,0.00,,,0.00,Weather View 32 v70,2013-08-05 22:55:00,
2013-08-05 19:00:00,75.0,55.6,29.95,SE,135,2.0,7.0,51,0.00,,,0.00,Weather View 32 v70,2013-08-05 23:00:00,
2013-08-05 19:10:00,74.0,56.2,29.95,ESE,112,3.0,7.0,54,0.00,,,0.00,Weather View 32 v70,2013-08-05 23:10:00,
2013-08-05 19:15:00,74.0,56.8,29.95,ESE,112,3.0,6.0,55,0.00,,,0.00,Weather View 32 v70,2013-08-05 23:15:00,
2013-08-05 19:20:00,74.0,57.8,29.95,ESE,112,2.0,5.0,57,0.00,,,0.00,Weather View 32 v70,2013-08-05 23:20:00,
2013-08-05 19:30:00,74.0,58.7,29.96,ESE,112,2.0,5.0,59,0.00,,,0.00,Weather View 32 v70,2013-08-05 23:30:00,
2013-08-05 19:40:00,73.0,58.2,29.96,SE,135,2.0,5.0,60,0.00,,,0.00,Weather View 32 v70,2013-08-05 23:40:00,
2013-08-05 19:50:00,73.0,59.2,29.96,ESE,112,2.0,4.0,62,0.00,,,0.00,Weather View 32 v70,2013-08-05 23:50:00,
2013-08-05 20:10:00,71.0,59.5,29.96,ESE,112,1.0,4.0,67,0.00,,,0.00,Weather View 32 v70,2013-08-06 00:10:00,
2013-08-05 20:20:00,71.0,60.7,29.97,ESE,112,3.0,4.0,70,0.00,,,0.00,Weather View 32 v70,2013-08-06 00:20:00,
2013-08-05 20:30:00,70.0,60.5,29.97,SE,135,2.0,3.0,72,0.00,,,0.00,Weather View 32 v70,2013-08-06 00:30:00,
2013-08-05 20:35:00,70.0,60.9,29.97,ESE,112,2.0,3.0,73,0.00,,,0.00,Weather View 32 v70,2013-08-06 00:35:00,
2013-08-05 20:42:00,70.0,60.9,29.97,ENE,68,1.0,3.0,73,0.00,,,0.00,Weather View 32 v70,2013-08-06 00:42:00,
2013-08-05 20:50:00,70.0,60.9,29.97,ENE,68,1.0,3.0,73,0.00,,,0.00,Weather View 32 v70,2013-08-06 00:50:00,
2013-08-05 21:00:00,69.0,60.0,29.97,ENE,68,1.0,3.0,73,0.00,,,0.00,Weather View 32 v70,2013-08-06 01:00:00,
2013-08-05 21:10:00,69.0,60.3,29.97,ESE,112,1.0,3.0,74,0.00,,,0.00,Weather View 32 v70,2013-08-06 01:10:00,
2013-08-05 21:15:00,69.0,60.3,29.97,SE,135,1.0,3.0,74,0.00,,,0.00,Weather View 32 v70,2013-08-06 01:15:00,
2013-08-05 21:25:00,69.0,61.1,29.97,SE,135,2.0,3.0,76,0.00,,,0.00,Weather View 32 v70,2013-08-06 01:25:00,
2013-08-05 21:30:00,69.0,61.1,29.97,SE,135,2.0,3.0,76,0.00,,,0.00,Weather View 32 v70,2013-08-06 01:30:00,
2013-08-05 21:43:00,68.0,60.5,29.97,ESE,112,2.0,3.0,77,0.00,,,0.00,Weather View 32 v70,2013-08-06 01:43:00,
2013-08-05 21:50:00,68.0,60.9,29.97,SSE,158,0.0,3.0,78,0.00,,,0.00,Weather View 32 v70,2013-08-06 01:50:00,
2013-08-05 22:00:00,68.0,61.6,29.96,ESE,112,1.0,3.0,80,0.00,,,0.00,Weather View 32 v70,2013-08-06 02:00:00,
2013-08-05 22:05:00,68.0,61.9,29.97,SE,135,1.0,3.0,81,0.00,,,0.00,Weather View 32 v70,2013-08-06 02:05:00,
2013-08-05 22:15:00,67.0,61.3,29.97,SSE,158,1.0,3.0,82,0.00,,,0.00,Weather View 32 v70,2013-08-06 02:15:00,
2013-08-05 22:20:00,67.0,61.3,29.97,ESE,112,2.0,3.0,82,0.00,,,0.00,Weather View 32 v70,2013-08-06 02:20:00,
2013-08-05 22:30:00,67.0,61.3,29.97,ESE,112,3.0,4.0,82,0.00,,,0.00,Weather View 32 v70,2013-08-06 02:30:00,
2013-08-05 22:40:00,67.0,61.6,29.97,ESE,112,2.0,4.0,83,0.00,,,0.00,Weather View 32 v70,2013-08-06 02:40:00,
2013-08-05 22:45:00,67.0,61.6,29.96,ESE,112,1.0,4.0,83,0.00,,,0.00,Weather View 32 v70,2013-08-06 02:45:00,
2013-08-05 22:55:00,66.0,61.0,29.96,SE,135,1.0,4.0,84,0.00,,,0.00,Weather View 32 v70,2013-08-06 02:55:00,
2013-08-05 23:05:00,66.0,61.0,29.96,ESE,112,1.0,4.0,84,0.00,,,0.00,Weather View 32 v70,2013-08-06 03:05:00,
2013-08-05 23:10:00,66.0,61.0,29.96,SE,135,2.0,4.0,84,0.00,,,0.00,Weather View 32 v70,2013-08-06 03:10:00,
2013-08-05 23:25:00,66.0,61.0,29.96,East,90,2.0,4.0,84,0.00,,,0.00,Weather View 32 v70,2013-08-06 03:25:00,
2013-08-05 23:30:00,66.0,61.0,29.96,NNE,22,0.0,3.0,84,0.00,,,0.00,Weather View 32 v70,2013-08-06 03:30:00,
2013-08-05 23:35:00,66.0,61.0,29.96,North,0,2.0,3.0,84,0.00,,,0.00,Weather View 32 v70,2013-08-06 03:35:00,
2013-08-05 23:40:00,66.0,61.3,29.96,North,0,1.0,3.0,85,0.00,,,0.00,Weather View 32 v70,2013-08-06 03:40:00,
2013-08-05 23:50:00,65.0,60.7,29.96,North,0,1.0,3.0,86,0.00,,,0.00,Weather View 32 v70,2013-08-06 03:50:00,